AirNav   Bose Proflight Series 2 Wireless Aviation Headset
 
 1663 users online  

05MD Breezecroft Airport
Chestertown, Maryland, USA

GOING TO CHESTERTOWN?


FAA INFORMATION EFFECTIVE 07 NOVEMBER 2019

Location

FAA Identifier: 05MD
Lat/Long: 39-14-39.1877N 076-11-55.2172W
39-14.653128N 076-11.920287W
39.2442188,-76.1986714
(estimated)
Elevation: 20 ft. / 6 m
Variation: 11W (2000)
From city: 8 miles W of CHESTERTOWN, MD
Time zone: UTC -5 (UTC -4 during Daylight Saving Time)
Zip code: 21620

Airport Operations

Airport use: Private use. Permission required prior to landing
Activation date: 12/2001
Control tower: no
ARTCC: WASHINGTON CENTER
FSS: LEESBURG FLIGHT SERVICE STATION
Attendance: UNATNDD
Wind indicator: yes
Segmented circle: no

Airport Communications

WX AWOS-3PT at MTN (11 nm NW): 124.925 (410-682-8848)
WX AWOS-3 at W29 (17 nm S): 120.575 (410-643-8795)

Nearby radio navigation aids

VOR radial/distance  VOR name  Freq  Var
BALr089/21.9BALTIMORE VORTAC115.1011W
ENOr280/31.7SMYRNA VORTAC111.4009W
DQOr236/37.8DUPONT VORTAC114.0010W
EMIr121/39.2WESTMINSTER VORTAC117.9008W

 
NDB name  Hdg/Dist  Freq  Var  ID
ELLICOTT107/27.037111WFND ..-. -. -..

Airport Services

Runway Information

Runway 18/36

Dimensions: 2700 x 80 ft. / 823 x 24 m
Surface: turf
RUNWAY 18  RUNWAY 36
Latitude: 39-14.874167N39-14.432090N
Longitude: 076-11.951667W076-11.888905W
Traffic pattern: leftleft
Displaced threshold: 500 ft.no
Obstructions: 50 ft. trees40 ft. pline

Airport Ownership and Management from official FAA records

Ownership: Privately-owned
Owner: FREDERICK T. LOHR
9860 BREEZECROFT LN.
CHESTERTOWN, MD 21620
Phone 410-778-1226
Manager: FREDERICK T. LOHR
9860 BREEZECROFT LN.
CHESTERTOWN, MD 21620
Phone 410-778-1226

Airport Operational Statistics

Aircraft based on the field: 1
Single engine airplanes: 1
    

Additional Remarks

FOR CD CTC POTOMAC APCH AT 866-429-5882.

Instrument Procedures

There are no published instrument procedures at 05MD.

Some nearby airports with instrument procedures:

KEDG - Weide Army Heliport (Aberdeen Proving Ground) (10 nm NW)
KMTN - Martin State Airport (11 nm NW)
KAPG - Phillips Army Airfield (13 nm N)
W29 - Bay Bridge Airport (17 nm S)
0W3 - Harford County Airport (19 nm N)
 
Loc | Ops | Rwys | IFR | FBO | Links
Com | Nav | Svcs | Stats | Notes
Area around 05MD (Breezecroft Airport)
 
Road maps at: MapQuest Bing Google
 
Aerial photo
No photo
 
Sectional chart

 
Airport distance calculator
Flying to Breezecroft Airport? Find the distance to fly.

From to 05MD

Sunrise and sunset
Times for 20-Nov-2019
 Local
(UTC-5)
 Zulu
(UTC)
Morning civil twilight06:2611:26
Sunrise06:5511:55
Sunset16:4621:46
Evening civil twilight17:1522:15

Current date and time
Zulu (UTC)  20-Nov-2019 18:17:11
Local (UTC-5)  20-Nov-2019 13:17:11
 
METAR
KMTN 
11nm NW 
201758Z 31013G20KT 10SM BKN040 12/03 A3004
KAPG 
15nm NE 
201757Z 35010G18KT 7SM SCT040 BKN070 10/01 A3003 RMK SLP172 T01020007 10113 20062 50000 $
KW29 
17nm S 
201755Z AUTO 33012G16KT 10SM SCT043 11/03 A3003 RMK AO2
KDMH 
20nm W 
201754Z AUTO 11/01 A3003 RMK AO1 SLP170 T01110011 10117 20083 58003
TAF
KMTN 
11nm NW 
201737Z 2018/2118 33013G20KT P6SM SCT040 BKN070 FM202200 32010G19KT P6SM FEW040 SCT110 FM210300 32009KT P6SM FEW045 SCT200 FM211600 30005KT P6SM FEW200
NOTAMs
Click for the latest NOTAMs
NOTAMs are issued by the DoD/FAA and will open in a separate window not controlled by AirNav.

 

 
 

Would you like to see your business listed on this page?

 If your business provides an interesting product or service to pilots, flight crews, aircraft, or users of the Breezecroft Airport, you should consider listing it here.  To start the listing process, click on the button below
 
Add a business
 

Other Pages about Breezecroft Airport

Update a link
 
Copyright © AirNav, LLC. All rights reserved. Privacy Policy  Contact